H1 CPF 1 NER 2021 11 3 9 8071 glonass105 H2 0705202 9105 32276 2021 11 3 0 0 0 2021 11 6 23 45 0 900 1 1 0 0 0 H9 10 0 59521 0.00000 0 22209802.580 -12483799.036 841317.880 10 0 59521 900.00000 0 21832498.336 -12515650.256 4075494.520 10 0 59521 1800.00000 0 21136632.911 -12286931.129 7230360.969 10 0 59521 2700.00000 0 20169440.394 -11762403.956 10244555.296 10 0 59521 3600.00000 0 18986175.331 -10918062.944 13059490.180 10 0 59521 4500.00000 0 17647706.266 -9742386.549 15620495.083 10 0 59521 5400.00000 0 16217894.488 -8237068.471 17877878.069 10 0 59521 6300.00000 0 14760869.363 -6417196.317 19787886.662 10 0 59521 7200.00000 0 13338315.406 -4310870.435 21313549.470 10 0 59521 8100.00000 0 12006885.125 -1958278.919 22425383.100 10 0 59521 9000.00000 0 10815845.719 589732.569 23101951.787 10 0 59521 9900.00000 0 9805057.374 3273536.556 23330270.087 10 0 59521 10800.00000 0 9003366.509 6026967.359 23106042.175 10 0 59521 11700.00000 0 8427479.691 8779839.853 22433734.216 10 0 59521 12600.00000 0 8081363.783 11460639.617 21326479.341 10 0 59521 13500.00000 0 7956195.891 13999273.909 19805817.655 10 0 59521 14400.00000 0 8030863.899 16329770.636 17901276.527 10 0 59521 15300.00000 0 8272995.677 18392814.563 15649799.216 10 0 59521 16200.00000 0 8640473.132 20138016.828 13095032.478 10 0 59521 17100.00000 0 9083367.286 21525824.689 10286486.289 10 0 59521 18000.00000 0 9546213.034 22528993.018 7278581.299 10 0 59521 18900.00000 0 9970528.100 23133557.148 4129601.645 10 0 59521 19800.00000 0 10297470.368 23339267.063 900572.680 10 0 59521 20700.00000 0 10470521.851 23159465.146 -2345915.153 10 0 59521 21600.00000 0 10438086.207 22620412.791 -5546914.018 10 0 59521 22500.00000 0 10155890.091 21760094.036 -8640334.875 10 0 59521 23400.00000 0 9589086.634 20626546.221 -11566148.660 10 0 59521 24300.00000 0 8713971.558 19275787.409 -14267549.316 10 0 59521 25200.00000 0 7519238.491 17769427.221 -16692056.130 10 0 59521 26100.00000 0 6006719.198 16172061.007 -18792533.911 10 0 59521 27000.00000 0 4191575.844 14548556.373 -20528111.198 10 0 59521 27900.00000 0 2101935.242 12961345.610 -21864978.643 10 0 59521 28800.00000 0 -222021.644 11467837.393 -22777051.868 10 0 59521 29700.00000 0 -2729478.927 10118056.188 -23246485.779 10 0 59521 30600.00000 0 -5360856.505 8952608.288 -23264030.017 10 0 59521 31500.00000 0 -8050055.831 8001059.880 -22829218.168 10 0 59521 32400.00000 0 -10726988.622 7280795.319 -21950386.468 10 0 59521 33300.00000 0 -13320284.168 6796403.698 -20644520.885 10 0 59521 34200.00000 0 -15760062.992 6539619.680 -18936934.789 10 0 59521 35100.00000 0 -17980661.526 6489821.179 -16860782.645 10 0 59521 36000.00000 0 -19923194.012 6615062.867 -14456418.492 10 0 59521 36900.00000 0 -21537844.244 6873601.723 -11770611.221 10 0 59521 37800.00000 0 -22785790.879 7215849.708 -8855631.698 10 0 59521 38700.00000 0 -23640685.286 7586670.262 -5768229.578 10 0 59521 39600.00000 0 -24089619.628 7927920.418 -2568520.330 10 0 59521 40500.00000 0 -24133544.612 8181129.661 681195.102 10 0 59521 41400.00000 0 -23787119.711 8290200.637 3917653.920 10 0 59521 42300.00000 0 -23078002.931 8204015.916 7077873.257 10 0 59521 43200.00000 0 -22045611.137 7878839.062 10100384.735 10 0 59521 44100.00000 0 -20739404.472 7280407.228 12926436.707 10 0 59521 45000.00000 0 -19216768.543 6385625.963 15501139.876 10 0 59521 45900.00000 0 -17540584.856 5183794.035 17774533.620 10 0 59521 46800.00000 0 -15776592.756 3677306.328 19702552.310 10 0 59521 47700.00000 0 -13990654.428 1881805.119 21247873.197 10 0 59521 48600.00000 0 -12246037.947 -174226.621 22380630.291 10 0 59521 49500.00000 0 -10600831.922 -2450412.916 23078981.468 10 0 59521 50400.00000 0 -9105599.183 -4895933.891 23329519.035 10 0 59521 51300.00000 0 -7801366.349 -7451416.148 23127517.132 10 0 59521 52200.00000 0 -6718031.727 -10051186.209 22477012.299 10 0 59521 53100.00000 0 -5873256.303 -12625793.956 21390716.586 10 0 59521 54000.00000 0 -5271882.376 -15104702.209 19889765.520 10 0 59521 54900.00000 0 -4905902.428 -17419031.855 18003306.034 10 0 59521 55800.00000 0 -4754978.163 -19504249.632 15767932.279 10 0 59521 56700.00000 0 -4787486.822 -21302688.137 13226979.868 10 0 59521 57600.00000 0 -4962050.178 -22765794.385 10429691.559 10 0 59521 58500.00000 0 -5229481.592 -23856014.229 7430269.856 10 0 59521 59400.00000 0 -5535069.152 -24548234.869 4286834.102 10 0 59521 60300.00000 0 -5821098.816 -24830725.776 1060301.460 10 0 59521 61200.00000 0 -6029511.401 -24705538.904 -2186787.028 10 0 59521 62100.00000 0 -6104581.430 -24188351.518 -5391473.087 10 0 59521 63000.00000 0 -5995504.769 -23307757.987 -8491597.514 10 0 59521 63900.00000 0 -5658785.584 -22104039.908 -11427002.634 10 0 59521 64800.00000 0 -5060321.300 -20627465.641 -14140697.757 10 0 59521 65700.00000 0 -4177096.783 -18936190.022 -16579965.027 10 0 59521 66600.00000 0 -2998415.083 -17093841.784 -18697384.124 10 0 59521 67500.00000 0 -1526611.426 -15166899.269 -20451755.937 10 0 59521 68400.00000 0 222781.424 -13221963.872 -21808907.230 10 0 59521 69300.00000 0 2221425.341 -11323045.020 -22742360.483 10 0 59521 70200.00000 0 4429112.211 -9528970.018 -23233855.783 10 0 59521 71100.00000 0 6795205.508 -7891026.918 -23273714.274 10 0 59521 72000.00000 0 9260529.631 -6450938.948 -22861035.662 10 0 59521 72900.00000 0 11759629.811 -5239255.262 -22003725.355 10 0 59521 73800.00000 0 14223309.578 -4274225.326 -20718349.944 10 0 59521 74700.00000 0 16581340.678 -3561204.210 -19029823.094 10 0 59521 75600.00000 0 18765232.791 -3092613.590 -16970927.101 10 0 59521 76500.00000 0 20710947.393 -2848459.915 -14581678.746 10 0 59521 77400.00000 0 22361441.896 -2797387.550 -11908551.277 10 0 59521 78300.00000 0 23668937.101 -2898221.863 -9003567.450 10 0 59521 79200.00000 0 24596812.298 -3101936.231 -5923281.353 10 0 59521 80100.00000 0 25121047.928 -3353958.695 -2727669.374 10 0 59521 81000.00000 0 25231154.869 -3596719.313 521047.300 10 0 59521 81900.00000 0 24930551.240 -3772328.844 3759624.708 10 0 59521 82800.00000 0 24236371.199 -3825273.782 6925037.541 10 0 59521 83700.00000 0 23178714.482 -3705012.113 9955714.624 10 0 59521 84600.00000 0 21799369.278 -3368358.581 12792743.331 10 0 59521 85500.00000 0 20150063.374 -2781557.547 15381018.555 10 0 59522 0.00000 0 18290318.533 -1921955.183 17670313.307 10 0 59522 900.00000 0 16284998.279 -779199.482 19616251.259 10 0 59522 1800.00000 0 14201655.390 644081.408 21181159.678 10 0 59522 2700.00000 0 12107787.291 2332152.603 22334791.119 10 0 59522 3600.00000 0 10068116.573 4256601.872 23054897.810 10 0 59522 4500.00000 0 8142008.764 6377307.361 23327650.110 10 0 59522 5400.00000 0 6381134.186 8643903.328 23147892.003 10 0 59522 6300.00000 0 4827469.940 10997683.085 22519229.880 10 0 59522 7200.00000 0 3511723.603 13373860.384 21453953.800 10 0 59522 8100.00000 0 2452242.419 15704095.928 19972793.430 10 0 59522 9000.00000 0 1654451.576 17919184.904 18104513.640 10 0 59522 9900.00000 0 1110843.331 19951794.752 15885357.548 10 0 59522 10800.00000 0 801515.894 21739140.418 13358347.430 10 0 59522 11700.00000 0 695238.369 23225486.738 10572456.392 10 0 59522 12600.00000 0 750996.301 24364374.536 7581666.166 10 0 59522 13500.00000 0 919952.444 25120478.271 4443928.489 10 0 59522 14400.00000 0 1147740.065 25471018.089 1220049.397 10 0 59522 15300.00000 0 1376992.175 25406667.385 -2027482.471 10 0 59522 16200.00000 0 1550000.113 24931917.794 -5235701.392 10 0 59522 17100.00000 0 1611389.268 24064885.994 -8342380.886 10 0 59522 18000.00000 0 1510698.916 22836569.875 -11287237.391 10 0 59522 18900.00000 0 1204756.886 21289584.616 -14013098.056 10 0 59522 19800.00000 0 659748.215 19476430.819 -16467010.077 10 0 59522 20700.00000 0 -147110.386 17457366.541 -18601269.915 10 0 59522 21600.00000 0 -1226362.085 15297971.529 -20374352.444 10 0 59522 22500.00000 0 -2575619.930 13066504.872 -21751721.916 10 0 59522 23400.00000 0 -4179426.105 10831165.984 -22706508.813 10 0 59522 24300.00000 0 -6009668.296 8657372.870 -23220039.292 10 0 59522 25200.00000 0 -8026537.800 6605170.988 -23282206.624 10 0 59522 26100.00000 0 -10179991.126 4726880.668 -22891676.948 10 0 59522 27000.00000 0 -12411655.758 3065081.187 -22055924.778 10 0 59522 27900.00000 0 -14657101.873 1651015.568 -20791096.864 10 0 59522 28800.00000 0 -16848386.047 503482.768 -19121706.250 10 0 59522 29700.00000 0 -18916761.262 -371736.564 -17080161.733 10 0 59522 30600.00000 0 -20795440.045 -981896.993 -14706141.095 10 0 59522 31500.00000 0 -22422294.767 -1346747.546 -12045819.875 10 0 59522 32400.00000 0 -23742381.443 -1497456.818 -9150970.385 10 0 59522 33300.00000 0 -24710180.418 -1475050.128 -6077948.590 10 0 59522 34200.00000 0 -25291459.038 -1328425.905 -2886589.093 10 0 59522 35100.00000 0 -25464677.337 -1112036.556 360969.525 10 0 59522 36000.00000 0 -25221877.198 -883333.514 3601505.075 10 0 59522 36900.00000 0 -24569017.422 -700086.275 6771952.821 10 0 59522 37800.00000 0 -23525740.903 -617690.543 9810641.831 10 0 59522 38700.00000 0 -22124584.289 -686580.894 12658501.496 10 0 59522 39600.00000 0 -20409664.300 -949858.623 15260213.796 10 0 59522 40500.00000 0 -18434896.907 -1441235.908 17565288.439 10 0 59522 41400.00000 0 -16261825.157 -2183383.654 19529039.969 10 0 59522 42300.00000 0 -13957147.542 -3186752.854 21113448.121 10 0 59522 43200.00000 0 -11590050.901 -4448919.077 22287885.578 10 0 59522 44100.00000 0 -9229459.383 -5954477.507 23029700.045 10 0 59522 45000.00000 0 -6941313.945 -7675492.739 23324640.583 10 0 59522 45900.00000 0 -4785994.872 -9572484.458 23167121.248 10 0 59522 46800.00000 0 -2815993.328 -11595907.955 22560318.112 10 0 59522 47700.00000 0 -1073927.230 -13688067.960 21516098.711 10 0 59522 48600.00000 0 409017.881 -15785386.600 20054786.005 10 0 59522 49500.00000 0 1614160.089 -17820931.748 18204761.655 10 0 59522 50400.00000 0 2535861.634 -19727101.310 16001916.313 10 0 59522 51300.00000 0 3181518.018 -21438352.575 13488957.208 10 0 59522 52200.00000 0 3570997.555 -22893863.828 10714585.815 10 0 59522 53100.00000 0 3735555.965 -24040017.944 7732560.875 10 0 59522 54000.00000 0 3716272.326 -24832604.933 4600664.096 10 0 59522 54900.00000 0 3562072.558 -25238651.731 1379587.803 10 0 59522 55800.00000 0 3327423.822 -25237802.778 -1868234.471 10 0 59522 56700.00000 0 3069797.015 -24823193.383 -5079832.343 10 0 59522 57600.00000 0 2847004.396 -24001778.817 -8192914.898 10 0 59522 58500.00000 0 2714524.709 -22794104.655 -11147075.529 10 0 59522 59400.00000 0 2722928.915 -21233527.140 -13884962.046 10 0 59522 60300.00000 0 2915515.569 -19364915.210 -16353389.422 10 0 59522 61200.00000 0 3326256.237 -17242887.584 -18504373.468 10 0 59522 62100.00000 0 3978138.555 -14929657.628 -20296065.369 10 0 59522 63000.00000 0 4881977.937 -12492575.125 -21693568.882 10 0 59522 63900.00000 0 6035749.437 -10001466.863 -22669624.137 10 0 59522 64800.00000 0 7424469.561 -7525886.270 -23205144.613 10 0 59522 65700.00000 0 9020634.837 -5132386.249 -23289596.555 10 0 59522 66600.00000 0 10785200.582 -2881928.557 -22921212.992 10 0 59522 67500.00000 0 12669060.599 -827537.399 -22107037.653 10 0 59522 68400.00000 0 14614967.380 987705.069 -20862797.198 10 0 59522 69300.00000 0 16559813.534 2532237.825 -19212603.491 10 0 59522 70200.00000 0 18437179.688 3787108.825 -17188490.899 10 0 59522 71100.00000 0 20180042.461 4746526.419 -14829796.913 10 0 59522 72000.00000 0 21723528.781 5417851.575 -12182397.638 10 0 59522 72900.00000 0 23007600.510 5821031.953 -9297812.781 10 0 59522 73800.00000 0 23979555.858 5987502.540 -6232197.595 10 0 59522 74700.00000 0 24596241.447 5958600.339 -3045241.912 10 0 59522 75600.00000 0 24825881.109 5783561.475 201001.572 10 0 59522 76500.00000 0 24649443.617 5517186.979 3443335.918 10 0 59522 77400.00000 0 24061491.281 5217277.669 6618660.497 10 0 59522 78300.00000 0 23070473.509 4941948.413 9665208.094 10 0 59522 79200.00000 0 21698453.157 4746936.974 12523753.423 10 0 59522 80100.00000 0 19980277.706 4683022.623 15138768.586 10 0 59522 81000.00000 0 17962230.830 4793664.662 17459502.538 10 0 59522 81900.00000 0 15700221.734 5112961.193 19440963.484 10 0 59522 82800.00000 0 13257588.911 5664014.508 21044785.433 10 0 59522 83700.00000 0 10702610.733 6457771.898 22239962.835 10 0 59522 84600.00000 0 8105827.011 7492390.385 23003440.119 10 0 59522 85500.00000 0 5537283.057 8753151.668 23320545.887 10 0 59523 0.00000 0 3063810.485 10212930.426 23185264.709 10 0 59523 900.00000 0 746455.405 11833196.990 22600342.261 10 0 59523 1800.00000 0 -1361837.211 13565510.500 21577223.049 10 0 59523 2700.00000 0 -3218193.048 15353443.055 20135822.364 10 0 59523 3600.00000 0 -4791348.538 17134853.155 18304137.274 10 0 59523 4500.00000 0 -6062700.746 18844414.967 16117704.198 10 0 59523 5400.00000 0 -7026824.973 20416298.576 13618913.229 10 0 59523 6300.00000 0 -7691440.145 21786890.138 10856191.861 10 0 59523 7200.00000 0 -8076824.753 22897439.042 7883073.274 10 0 59523 8100.00000 0 -8214708.844 23696522.001 4757166.409 10 0 59523 9000.00000 0 -8146689.257 24142221.328 1539047.009 10 0 59523 9900.00000 0 -7922235.071 24203926.222 -1708909.461 10 0 59523 10800.00000 0 -7596367.403 23863681.384 -4923730.945 10 0 59523 11700.00000 0 -7227111.376 23117025.851 -8043065.055 10 0 59523 12600.00000 0 -6872827.680 21973286.117 -11006384.987 10 0 59523 13500.00000 0 -6589536.371 20455310.217 -13756161.882 10 0 59523 14400.00000 0 -6428346.029 18598652.713 -16238980.925 10 0 59523 15300.00000 0 -6433097.081 16450243.482 -18406579.442 10 0 59523 16200.00000 0 -6638319.295 14066594.714 -20216786.808 10 0 59523 17100.00000 0 -7067590.407 11511619.754 -21634347.885 10 0 59523 18000.00000 0 -7732366.096 8854153.827 -22631613.776 10 0 59523 18900.00000 0 -8631331.906 6165279.007 -23189086.337 10 0 59523 19800.00000 0 -9750305.907 3515564.113 -23295805.554 10 0 59523 20700.00000 0 -11062697.751 972333.951 -22949571.797 10 0 59523 21600.00000 0 -12530506.472 -1402918.852 -22156998.107 10 0 59523 22500.00000 0 -14105816.640 -3556871.923 -20933390.765 10 0 59523 23400.00000 0 -15732731.274 -5446363.794 -19302459.754 10 0 59523 24300.00000 0 -17349661.278 -7039954.291 -17295863.912 10 0 59523 25200.00000 0 -18891875.800 -8318989.681 -14952598.946 10 0 59523 26100.00000 0 -20294206.343 -9278128.300 -12318239.698 10 0 59523 27000.00000 0 -21493790.611 -9925305.164 -9444051.153 10 0 59523 27900.00000 0 -22432739.935 -10281137.883 -6385985.474 10 0 59523 28800.00000 0 -23060616.979 -10377799.877 -3203585.139 10 0 59523 29700.00000 0 -23336618.324 -10257409.765 41185.813 10 0 59523 30600.00000 0 -23231368.908 -9970006.491 3285158.639 10 0 59523 31500.00000 0 -22728251.888 -9571197.434 6465199.890 10 0 59523 32400.00000 0 -21824217.324 -9119580.717 9519449.228 10 0 59523 33300.00000 0 -20530035.407 -8674052.398 12388529.884 10 0 59523 34200.00000 0 -18869983.740 -8291113.853 15016707.205 10 0 59523 35100.00000 0 -16880982.193 -8022294.279 17352972.330 10 0 59523 36000.00000 0 -14611212.183 -7911797.896 19352029.798 10 0 59523 36900.00000 0 -12118278.880 -7994475.434 20975170.173 10 0 59523 37800.00000 0 -9466993.653 -8294205.260 22191011.509 10 0 59523 38700.00000 0 -6726869.539 -8822751.959 22976096.311 10 0 59523 39600.00000 0 -3969434.073 -9579149.725 23315333.583 10 0 59523 40500.00000 0 -1265470.747 -10549635.848 23202278.722 10 0 59523 41400.00000 0 1317697.224 -11708136.603 22639247.018 10 0 59523 42300.00000 0 3718769.233 -13017284.795 21637259.533 10 0 59523 43200.00000 0 5884771.035 -14429926.346 20215823.119 10 0 59523 44100.00000 0 7773006.076 -15891053.088 18402549.168 10 0 59523 45000.00000 0 9352575.163 -17340081.362 16232618.483 10 0 59523 45900.00000 0 10605403.174 -18713381.765 13748102.328 10 0 59523 46800.00000 0 11526731.738 -19946954.955 10997152.215 10 0 59523 47700.00000 0 12125058.778 -20979142.167 8033073.457 10 0 59523 48600.00000 0 12421528.621 -21753257.581 4913299.659 10 0 59523 49500.00000 0 12448799.110 -22220032.585 1698287.186 10 0 59523 50400.00000 0 12249433.761 -22339769.542 -1549649.516 10 0 59523 51300.00000 0 11873886.855 -22084114.529 -4767539.759 10 0 59523 52200.00000 0 11378166.379 -21437374.106 -7892972.727 10 0 59523 53100.00000 0 10821273.195 -20397320.026 -10865304.418 10 0 59523 54000.00000 0 10262524.410 -18975446.995 -13626832.194 10 0 59523 54900.00000 0 9758873.797 -17196671.345 -16123914.182 10 0 59523 55800.00000 0 9362342.387 -15098481.779 -18308011.716 10 0 59523 56700.00000 0 9117667.895 -12729576.209 -20136634.587 10 0 59523 57600.00000 0 9060272.518 -10148040.091 -21574170.634 10 0 59523 58500.00000 0 9214635.474 -7419140.971 -22592583.419 10 0 59523 59400.00000 0 9593139.699 -4612829.899 -23171964.244 10 0 59523 60300.00000 0 10195442.393 -1801052.689 -23300927.490 10 0 59523 61200.00000 0 11008397.140 945017.793 -22976841.136 10 0 59523 62100.00000 0 12006532.177 3557713.792 -22205887.436 10 0 59523 63000.00000 0 13153066.019 5975456.002 -21002951.893 10 0 59523 63900.00000 0 14401418.835 8145080.668 -19391341.895 10 0 59523 64800.00000 0 15697156.926 10023813.630 -17402339.760 10 0 59523 65700.00000 0 16980289.041 11580809.089 -15074598.120 10 0 59523 66600.00000 0 18187818.022 12798188.865 -12453388.939 10 0 59523 67500.00000 0 19256440.034 13671539.050 -9589720.507 10 0 59523 68400.00000 0 20125277.008 14209843.792 -6539339.596 10 0 59523 69300.00000 0 20738526.115 14434859.820 -3361638.684 10 0 59523 70200.00000 0 21047913.386 14379959.235 -118490.242 10 0 59523 71100.00000 0 21014846.795 14088490.796 3126968.273 10 0 59523 72000.00000 0 20612176.868 13611730.481 6311573.787 10 0 59523 72900.00000 0 19825489.726 13006509.635 9373376.021 10 0 59523 73800.00000 0 18653877.464 12332622.665 12252849.795 10 0 59523 74700.00000 0 17110153.202 11650125.305 14894056.613 10 0 59523 75600.00000 0 15220501.834 11016638.883 17245732.482 10 0 59523 76500.00000 0 13023581.352 10484775.182 19262280.695 10 0 59523 77400.00000 0 10569112.883 10099790.918 20904650.504 10 0 59523 78300.00000 0 7916018.722 9897570.613 22141085.386 10 0 59523 79200.00000 0 5130186.310 9903022.309 22947727.384 10 0 59523 80100.00000 0 2281951.340 10128952.812 23309066.978 10 0 59523 81000.00000 0 -556595.702 10575468.841 23218231.077 10 0 59523 81900.00000 0 -3314368.463 11229928.311 22677104.745 10 0 59523 82800.00000 0 -5923995.608 12067443.043 21696285.294 10 0 59523 83700.00000 0 -8324372.679 13051911.289 20294870.351 10 0 59523 84600.00000 0 -10462950.724 14137536.660 18500084.366 10 0 59523 85500.00000 0 -12297668.375 15270769.835 16346750.842 10 0 59524 0.00000 0 -13798448.815 16392592.004 13876620.406 10 0 59524 900.00000 0 -14948201.762 17441045.465 11137565.823 10 0 59524 1800.00000 0 -15743288.207 18353904.348 8182662.245 10 0 59524 2700.00000 0 -16193432.456 19071376.032 5069165.284 10 0 59524 3600.00000 0 -16321083.957 19538718.773 1857409.189 10 0 59524 4500.00000 0 -16160257.155 19708666.375 -1390355.410 10 0 59524 5400.00000 0 -15754898.251 19543557.861 -4611162.024 10 0 59524 6300.00000 0 -15156847.698 19017082.183 -7742544.238 10 0 59524 7200.00000 0 -14423484.062 18115563.878 -10723743.643 10 0 59524 8100.00000 0 -13615148.418 16838734.571 -13496886.495 10 0 59524 9000.00000 0 -12792457.632 15199956.531 -16008106.368 10 0 59524 9900.00000 0 -12013619.678 13225887.341 -18208590.880 10 0 59524 10800.00000 0 -11331864.129 10955597.986 -20055532.222 10 0 59524 11700.00000 0 -10793096.262 8439179.461 -21512962.900 10 0 59524 12600.00000 0 -10433873.886 5735894.434 -22552460.309 10 0 59524 13500.00000 0 -10279792.635 2911949.463 -23153706.257 10 0 59524 14400.00000 0 -10344348.371 37979.209 -23304890.257 10 0 59524 15300.00000 0 -10628325.411 -2813653.680 -23002948.303 10 0 59524 16200.00000 0 -11119737.293 -5571631.515 -22253631.938 10 0 59524 17100.00000 0 -11794323.504 -8168412.578 -21071405.595 10 0 59524 18000.00000 0 -12616582.213 -10542806.755 -19479173.442 10 0 59524 18900.00000 0 -13541296.221 -12642288.693 -17507840.294 10 0 59524 19800.00000 0 -14515488.387 -14424952.076 -15195714.407 10 0 59524 20700.00000 0 -15480724.214 -15861023.356 -12587763.286 10 0 59524 21600.00000 0 -16375664.299 -16933871.789 -9734736.707 10 0 59524 22500.00000 0 -17138758.338 -17640473.770 -6692174.006 10 0 59524 23400.00000 0 -17710966.010 -17991312.505 -3519315.447 10 0 59524 24300.00000 0 -18038388.660 -18009718.172 -277939.523 10 0 59524 25200.00000 0 -18074699.371 -17730677.553 2968850.185 10 0 59524 26100.00000 0 -17783267.485 -17199164.761 6157863.730 10 0 59524 27000.00000 0 -17138886.821 -16468065.180 9227063.807 10 0 59524 27900.00000 0 -16129033.770 -15595781.910 12116779.839 10 0 59524 28800.00000 0 -14754601.727 -14643627.379 14770872.531 10 0 59524 29700.00000 0 -13030080.676 -13673111.544 17137825.735 10 0 59524 30600.00000 0 -10983174.360 -12743242.038 19171744.299 10 0 59524 31500.00000 0 -8653871.302 -11907950.586 20833238.683 10 0 59524 32400.00000 0 -6093008.744 -11213754.072 22090179.942 10 0 59524 33300.00000 0 -3360389.609 -10697748.202 22918311.389 10 0 59524 34200.00000 0 -522531.005 -10386017.250 23301706.261 10 0 59524 35100.00000 0 2349862.369 -10292525.555 23233063.807 10 0 59524 36000.00000 0 5184595.577 -10418536.088 22713839.261 10 0 59524 36900.00000 0 7910740.464 -10752579.290 21754206.163 10 0 59524 37800.00000 0 10461339.235 -11270972.509 20372852.526 10 0 59524 38700.00000 0 12775943.957 -11938867.566 18596615.121 10 0 59524 39600.00000 0 14802888.115 -12711782.132 16459959.049 10 0 59524 40500.00000 0 16501197.571 -13537550.639 14004312.378 10 0 59524 41400.00000 0 17842063.069 -14358613.093 11277268.188 10 0 59524 42300.00000 0 18809814.285 -15114546.085 8331668.827 10 0 59524 43200.00000 0 19402356.078 -15744730.131 5224589.334 10 0 59524 44100.00000 0 19631049.582 -16191041.662 2016238.925 10 0 59524 45000.00000 0 19520043.744 -16400456.688 -1231198.754 10 0 59524 45900.00000 0 19105085.712 -16327456.629 -4454764.730 10 0 59524 46800.00000 0 18431860.127 -15936134.757 -7591940.361 10 0 59524 47700.00000 0 17553927.021 -15201913.971 -10581856.132 10 0 59524 48600.00000 0 16530344.898 -14112802.677 -13366470.363 10 0 59524 49500.00000 0 15423078.734 -12670134.594 -15891695.020 10 0 59524 50400.00000 0 14294301.766 -10888759.865 -18108446.686 10 0 59524 51300.00000 0 13203704.455 -8796677.611 -19973602.308 10 0 59524 52200.00000 0 12205923.764 -6434123.345 -21450841.048 10 0 59524 53100.00000 0 11348200.970 -3852147.542 -22511355.713 10 0 59524 54000.00000 0 10668366.725 -1110742.813 -23134419.753 10 0 59524 54900.00000 0 10193238.414 1723403.915 -23307798.513 10 0 59524 55800.00000 0 9937497.708 4579441.907 -23027996.261 10 0 59524 56700.00000 0 9903096.075 7385065.621 -22300333.688 10 0 59524 57600.00000 0 10079213.868 10069290.248 -21138853.648 10 0 59524 58500.00000 0 10442775.329 12565178.640 -19566056.241 10 0 59524 59400.00000 0 10959498.311 14812406.271 -17612467.627 10 0 59524 60300.00000 0 11585434.803 16759557.299 -15316050.239 10 0 59524 61200.00000 0 12268937.334 18366055.681 -12721465.374 10 0 59524 62100.00000 0 12952968.010 19603650.544 -9879202.237 10 0 59524 63000.00000 0 13577652.054 20457393.647 -6844590.376 10 0 59524 63900.00000 0 14082967.019 20926068.119 -3676715.202 10 0 59524 64800.00000 0 14411452.805 21022051.078 -437258.366 10 0 59524 65700.00000 0 14510826.552 20770616.769 2810713.453 10 0 59524 66600.00000 0 14336390.501 20208710.781 6003986.543 10 0 59524 67500.00000 0 13853129.772 19383248.456 9080439.664 10 0 59524 68400.00000 0 13037410.361 18349010.832 11980259.840 10 0 59524 69300.00000 0 11878204.955 17166228.410 14647109.809 10 0 59524 70200.00000 0 10377794.353 15897956.043 17029223.900 10 0 59524 71100.00000 0 8551914.758 14607350.626 19080410.895 10 0 59524 72000.00000 0 6429344.709 13354966.888 20760944.576 10 0 59524 72900.00000 0 4050949.050 12196185.207 22038325.375 10 0 59524 73800.00000 0 1468219.893 11178879.164 22887899.336 10 0 59524 74700.00000 0 -1258624.500 10341419.958 23293323.528 10 0 59524 75600.00000 0 -4062904.050 9711100.222 23246870.183 10 0 59524 76500.00000 0 -6874010.785 9303041.837 22749564.884 10 0 59524 77400.00000 0 -9620107.837 9119632.092 21811157.086 10 0 59524 78300.00000 0 -12230882.613 9150510.343 20449924.359 10 0 59524 79200.00000 0 -14640241.216 9373104.565 18692314.473 10 0 59524 80100.00000 0 -16788833.656 9753694.419 16572432.354 10 0 59524 81000.00000 0 -18626306.507 10248955.681 14131381.592 10 0 59524 81900.00000 0 -20113190.847 10807921.042 11416472.688 10 0 59524 82800.00000 0 -21222348.108 11374274.972 8480312.748 10 0 59524 83700.00000 0 -21939914.716 11888886.426 5379793.477 10 0 59524 84600.00000 0 -22265706.943 12292473.179 2174996.250 10 0 59524 85500.00000 0 -22213069.539 12528285.878 -1071965.085 99